Regional Weather Roundup
Issued by NWS

Home | Current Version | Previous Version | Text Only | Print | Product List | Glossary On
Versions: 1 2 3 4 5 6 7 8 9 10 11 12 13 14 15 16 17 18 19 20 21 22 23 24 25 26 27 28 29 30 31 32 33 34 35 36 37 38 39 40 41 42 43 44 45 46 47 48 49 50
000
ASUS43 KIND 110009
RWRIN

WEATHER ROUNDUP FOR INDIANA
NATIONAL WEATHER SERVICE INDIANAPOLIS IN
700 PM EST SUN DEC 10 2017

NOTE: "FAIR" INDICATES FEW OR NO CLOUDS BELOW 12,000 FEET WITH NO
SIGNIFICANT WEATHER AND/OR OBSTRUCTIONS TO VISIBILITY.

* - STATION DOES NOT REPORT WEATHER SUCH AS PRECIPITATION OR FOG.

+ - STATION NOT QUALITY CONTROLLED BY THE NATIONAL WEATHER SERVICE.
    USE DATA WITH CAUTION...ESPECIALLY DEWPOINT AND RELATIVE
    HUMIDITY OBSERVATIONS.

INZ001>003-010>013-019-020-110100-
NORTHWEST INDIANA

CITY           SKY/WX    TMP DP  RH WIND       PRES   REMARKS
GARY /AIRPORT/ MOCLDY    32  19  59 NW9       30.03R WCI  24
KNOX *+        CLOUDY    32  25  74 NW6       29.98R WCI  26
LA PORTE +     CLOUDY    31  24  76 NW9       29.99R WCI  23
6HR MIN TEMP:  30; 6HR MAX TEMP:  33;

MICHIGAN CITY+ CLOUDY    32  23  69 NW8G16    30.01R WCI  25
MONTICELLO +   CLOUDY    30  20  66 W6        29.99R WCI  24
6HR MIN TEMP:  30; 6HR MAX TEMP:  38;

RENSSELAER +   CLOUDY    32  18  55 NW9       30.01R WCI  24
VALPARAISO     CLOUDY    33  23  66 NW8       30.00R WCI  26
6HR MIN TEMP:  33; 6HR MAX TEMP:  37;


$$

LMZ046-743>745-110100-
SOUTHERN LAKE MICHIGAN

STATION/POSITION TIME  TEMP    WIND        PRES    WAVE
                       AIR SEA DIR/SP/G            HT
                 (UTC) (F)     (DEG/KT/KT) (MB)    (FT)
BURNS HARBOR     2340   33     320/ 15/ 18 1016.6R
MICHIGAN CITY    2340   32     310/ 20/ 21   N/A

$$

INZ004-005-014>016-021>024-110100-
NORTH CENTRAL INDIANA

CITY           SKY/WX    TMP DP  RH WIND       PRES   REMARKS
GOSHEN         CLOUDY    31  23  72 W10       29.96R WCI  22
6HR MIN TEMP:  27; 6HR MAX TEMP:  31;

LOGANSPORT +   MOCLDY    32  23  69 W6        29.99R WCI  26
PERU/GRISSOM   CLEAR     31  23  72 W9        29.96R WCI  23
6HR MIN TEMP:  31; 6HR MAX TEMP:  36;

ROCHESTER +    CLOUDY    34  27  75 NW9       29.98R WCI  26
SOUTH BEND     CLOUDY    30  25  81 NW12      29.99R WCI  20
6HR MIN TEMP:  27; 6HR MAX TEMP:  30;

WARSAW +       CLOUDY    32  23  69 NW7       29.96R WCI  26

$$

INZ006>009-017-018-025>027-110100-
NORTHEAST INDIANA

CITY           SKY/WX    TMP DP  RH WIND       PRES   REMARKS
AUBURN +       CLOUDY    32  23  69 CALM      29.95R
FORT WAYNE     CLOUDY    33  25  72 W6        29.95R WCI  28
6HR MIN TEMP:  29; 6HR MAX TEMP:  33;

HUNTINGTON +   CLOUDY    33  23  67 W6        29.95R WCI  27
6HR MIN TEMP:  30; 6HR MAX TEMP:  34;

KENDALLVILLE + CLOUDY    30  22  74 W3        29.95R

$$

INZ028-029-035-036-043>045-051>053-110100-
WEST CENTRAL INDIANA

CITY           SKY/WX    TMP DP  RH WIND       PRES   REMARKS
CRAWFORDSVL +  CLEAR     31  22  69 W8        30.00R WCI  23
6HR MIN TEMP:  31; 6HR MAX TEMP:  37;

GREENCASTLE +  CLEAR     34  21  60 W5        30.01S WCI  30
LAFAYETTE      CLEAR     31  22  69 W8        30.00R WCI  23
6HR MIN TEMP:  31; 6HR MAX TEMP:  39;

TERRE HAUTE    CLEAR     35  22  58 W6        30.03R WCI  30
6HR MIN TEMP:  34; 6HR MAX TEMP:  41;


$$

INZ030>032-037>040-046>048-054>057-064-065-110100-
CENTRAL INDIANA

CITY           SKY/WX    TMP DP  RH WIND       PRES   REMARKS
COLUMBUS       CLEAR     30  18  59 SW5       30.03R WCI  25
FRANKFORT +    CLEAR     33  24  68 W9        30.00R WCI  26
6HR MIN TEMP:  32; 6HR MAX TEMP:  41;

INDIANAPOLIS   PTCLDY    31  22  69 SW9       30.00R WCI  23
6HR MIN TEMP:  30; 6HR MAX TEMP:  38;

-EAGLE CREEK   CLEAR     34  21  59 SW5       29.99R WCI  30
6HR MIN TEMP:  32; 6HR MAX TEMP:  38;

KOKOMO +       MOCLDY    30  23  75 W9        29.98R WCI  22
6HR MIN TEMP:  30; 6HR MAX TEMP:  36;

MARION +       CLOUDY    33  24  72 W10       29.97R WCI  24
MT COMFORT *+  CLEAR     30  25  80 SW5       29.99S WCI  25
SHELBYVILLE    CLEAR     32  20  61 SW6       30.00R WCI  26
6HR MIN TEMP:  31; 6HR MAX TEMP:  38;

ZIONSVILLE +   CLEAR     32  21  65 W8        29.99R WCI  24
6HR MIN TEMP:  30; 6HR MAX TEMP:  37;


$$

INZ033-034-041-042-049-050-058-059-110100-
EAST CENTRAL INDIANA

CITY           SKY/WX    TMP DP  RH WIND       PRES   REMARKS
MUNCIE         CLOUDY    35  21  56 SW7       29.97R WCI  29
6HR MIN TEMP:  30; 6HR MAX TEMP:  36;

RICHMOND +     PTCLDY    28  21  74 SW8       29.99R WCI  20

$$

INZ060-061-067>069-081>083-085>088-110100-
SOUTHWEST INDIANA

CITY           SKY/WX    TMP DP  RH WIND       PRES   REMARKS
EVANSVILLE     CLEAR     37  25  61 CALM      30.08R
6HR MIN TEMP:  36; 6HR MAX TEMP:  45;

HUNTINGBURG +  CLEAR     37  24  59 SW7       30.06R WCI  32
6HR MIN TEMP:  37; 6HR MAX TEMP:  42;

WASHINGTON +   CLEAR     35  23  62 SW5       30.05R WCI  31
6HR MIN TEMP:  35; 6HR MAX TEMP:  41;


$$

INZ062-063-066-070>080-084-089>092-110100-
SOUTH CENTRAL AND SOUTHEAST INDIANA

CITY           SKY/WX    TMP DP  RH WIND       PRES   REMARKS
BLOOMINGTON    CLEAR     35  22  58 W5        30.02R WCI  31
6HR MIN TEMP:  35; 6HR MAX TEMP:  40;

MADISON *+     CLEAR     32  19  59 SW5       30.05R WCI  27
NORTH VERNON + CLEAR     30  19  64 SW5       30.04R WCI  25
SEYMOUR +      CLEAR     32  21  64 SW7       30.03R WCI  26

$$




USA.gov is the U.S. government's official web portal to all federal, state and local government web resources and services.